Seabourn Legend — C6FR6 — position and weather

sailwx.info

Track history (hours):
 
Tides and Currents Weather Stations Pressure Air Temp Water Temp Dewpoint Dewpoint Depression Visibility Wind Speed Wind Dir Waves Ship Positions

Seabourn Legend

Operator: Cunard Seabourn

Last reported at 2017-Apr-24 18:42 UTC. Time now 2017-Apr-25 02:52 UTC.
Position N 36°52' W 007°55'.

Length 135 m; draft 5.5 m.

Type: Passenger vessel. MMSI: 311085000.

Date/timePositionNaut miles runAvg speedWind from/ knotsBaromVisibWave heightAir tempDewpointWater temp
2017-Apr-24 18:42N 36°52' W 007°55'211.6
2017-Apr-24 18:30N 36°53' W 007°58'611.5
2017-Apr-24 18:00N 36°55' W 008°04'611.6
2017-Apr-24 17:30N 36°57' W 008°11'611.9
2017-Apr-24 17:00N 36°60' W 008°18'611.7
2017-Apr-24 16:30N 37°02' W 008°25'611.5
2017-Apr-24 16:00N 37°04' W 008°32'3 6.2
2017-Apr-24 15:30N 37°07' W 008°32'0 0.0
2017-Apr-24 15:00N 37°07' W 008°32'0 0.0
2017-Apr-24 14:30N 37°07' W 008°32'0 0.0
2017-Apr-24 13:30N 37°07' W 008°32'0 0.0
2017-Apr-24 13:00N 37°07' W 008°32'0 0.0
2017-Apr-24 12:30N 37°07' W 008°32'0 0.0
2017-Apr-24 11:56N 37°07' W 008°32'0 0.0
2017-Apr-24 11:26N 37°07' W 008°32'0 0.0
2017-Apr-24 10:56N 37°07' W 008°32'0 0.0
2017-Apr-24 10:29N 37°07' W 008°32'0 0.0
2017-Apr-24 09:59N 37°07' W 008°32'0 0.0
2017-Apr-24 09:28N 37°07' W 008°32'0 0.0
2017-Apr-24 08:58N 37°07' W 008°32'0 0.0
2017-Apr-24 08:28N 37°07' W 008°32'0 0.0
2017-Apr-24 07:55N 37°07' W 008°32'0 0.1
2017-Apr-24 07:30N 37°07' W 008°32'0 0.9
2017-Apr-24 07:00N 37°07' W 008°31'4 7.9
2017-Apr-24 06:30N 37°03' W 008°34'3 6.2
2017-Apr-24 06:00N 37°02' W 008°37'4 7.3
2017-Apr-24 05:30N 36°59' W 008°40'4 7.3
2017-Apr-24 05:00N 36°57' W 008°44'4 7.0
2017-Apr-24 04:30N 36°55' W 008°47'4 7.0
2017-Apr-24 04:00N 36°53' W 008°51'4 7.9
2017-Apr-24 03:30N 36°51' W 008°55'510.2
2017-Apr-24 03:00N 36°50' W 009°01'510.8
2017-Apr-24 02:30N 36°53' W 009°07'510.9
2017-Apr-24 02:00N 36°56' W 009°12'611.1
2017-Apr-24 01:29N 37°02' W 009°13'511.2
2017-Apr-24 01:00N 37°07' W 009°14'611.1
2017-Apr-24 00:30N 37°13' W 009°15'611.5
2017-Apr-24 00:00N 37°18' W 009°16'611.4
2017-Apr-23 23:30N 37°24' W 009°16'611.7
2017-Apr-23 23:00N 37°30' W 009°16'611.7
2017-Apr-23 22:30N 37°36' W 009°17'611.8
2017-Apr-23 22:00N 37°42' W 009°17'611.6
2017-Apr-23 21:30N 37°48' W 009°18'611.8
2017-Apr-23 21:00N 37°53' W 009°19'612.2
2017-Apr-23 20:30N 37°59' W 009°19'612.5
2017-Apr-23 20:00N 38°06' W 009°20'612.2
2017-Apr-23 19:30N 38°12' W 009°20'612.0
2017-Apr-23 19:00N 38°18' W 009°21'612.0
2017-Apr-23 18:30N 38°24' W 009°22'611.3
2017-Apr-23 18:00N 38°29' W 009°22'611.8
2017-Apr-23 17:30N 38°35' W 009°23'612.3
2017-Apr-23 17:00N 38°40' W 009°18'5 9.9
2017-Apr-23 16:30N 38°41' W 009°12'4 8.0
2017-Apr-23 16:00N 38°43' W 009°07'0 0.0
2017-Apr-23 15:30N 38°43' W 009°07'0 0.0
2017-Apr-23 15:00N 38°43' W 009°07'0 0.0
2017-Apr-23 13:56N 38°43' W 009°07'0 0.0
2017-Apr-23 13:29N 38°43' W 009°07'0 0.0
2017-Apr-23 12:59N 38°43' W 009°07'0 0.0
2017-Apr-23 12:29N 38°43' W 009°07'0 0.0
2017-Apr-23 11:58N 38°43' W 009°07'0 0.0
2017-Apr-23 11:28N 38°43' W 009°07'0 0.0
2017-Apr-23 10:58N 38°43' W 009°07'0 0.0
2017-Apr-23 10:28N 38°43' W 009°07'0 0.0
2017-Apr-23 10:01N 38°43' W 009°07'0 0.0
2017-Apr-23 09:27N 38°43' W 009°07'0 0.0
2017-Apr-23 09:00N 38°43' W 009°07'0 0.0
2017-Apr-23 08:30N 38°43' W 009°07'0 0.0
2017-Apr-23 08:00N 38°43' W 009°07'0 0.0
2017-Apr-23 07:29N 38°43' W 009°07'0 0.0
2017-Apr-23 06:59N 38°43' W 009°07'0 0.0
2017-Apr-23 06:29N 38°43' W 009°07'0 0.0
2017-Apr-23 05:59N 38°43' W 009°07'0 0.0
2017-Apr-23 05:29N 38°43' W 009°07'0 0.4
2017-Apr-23 05:00N 38°43' W 009°07'3 6.3
2017-Apr-23 04:30N 38°41' W 009°11'2 4.0
2017-Apr-23 03:59N 38°41' W 009°14'3 5.6
2017-Apr-23 03:30N 38°41' W 009°17'3 5.4
2017-Apr-23 03:00N 38°39' W 009°20'3 5.7
2017-Apr-23 02:30N 38°37' W 009°22'3 6.7
2017-Apr-23 02:00N 38°36' W 009°26'4 7.1
2017-Apr-23 01:30N 38°36' W 009°31'3 6.1
2017-Apr-23 01:00N 38°36' W 009°35'3 6.2
2017-Apr-23 00:30N 38°36' W 009°39'3 6.5
2017-Apr-23 00:00N 38°35' W 009°43'3 6.4
2017-Apr-22 23:30N 38°35' W 009°47'3 6.4
2017-Apr-22 23:00N 38°35' W 009°51'3 6.3
2017-Apr-22 22:30N 38°35' W 009°55'3 6.2
2017-Apr-22 22:00N 38°34' W 009°59'3 6.2
2017-Apr-22 21:30N 38°34' W 010°03'3 6.4
2017-Apr-22 21:00N 38°33' W 010°07'3 6.5
2017-Apr-22 20:29N 38°33' W 010°11'3 6.4
2017-Apr-22 20:00N 38°32' W 010°15'3 6.6
2017-Apr-22 19:30N 38°32' W 010°19'3 6.5
2017-Apr-22 19:00N 38°31' W 010°23'7 6.3
2017-Apr-22 17:55N 38°30' W 010°32'  
2017-Apr-20 03:07N 36°46' W 022°51'3610.1
2017-Apr-19 23:35N 36°38' W 023°35'3 9.9
2017-Apr-19 23:15N 36°37' W 023°39'2 9.8
2017-Apr-19 23:00N 36°36' W 023°42'5 9.9
2017-Apr-19 22:30N 36°35' W 023°48'510.1
2017-Apr-19 22:01N 36°34' W 023°54'510.2
2017-Apr-19 21:30N 36°33' W 023°60'510.3
2017-Apr-19 21:00N 36°32' W 024°06'510.3
2017-Apr-19 20:30N 36°30' W 024°12'510.5
2017-Apr-19 20:00N 36°29' W 024°19'510.1
2017-Apr-19 19:31N 36°28' W 024°25'510.0
2017-Apr-19 19:00N 36°27' W 024°31'510.1
2017-Apr-19 18:30N 36°26' W 024°37'510.2
2017-Apr-19 18:00N 36°24' W 024°43'510.0
2017-Apr-19 17:30N 36°23' W 024°49'5 9.9
2017-Apr-19 17:00N 36°22' W 024°55'5 9.7
2017-Apr-19 16:30N 36°21' W 025°01'5 9.8
2017-Apr-19 16:00N 36°20' W 025°07'5 9.6
2017-Apr-19 15:30N 36°18' W 025°13'5 9.5
2017-Apr-19 15:00N 36°17' W 025°18'5 9.9
2017-Apr-19 14:30N 36°16' W 025°24'1010.1
2017-Apr-19 13:30N 36°13' W 025°36'510.2
2017-Apr-19 13:00N 36°12' W 025°42'510.3
2017-Apr-19 12:30N 36°10' W 025°49'510.6
2017-Apr-19 12:00N 36°09' W 025°55'610.9
2017-Apr-19 11:26N 36°07' W 026°02'  
Track history (hours):
 
Tides and Currents Weather Stations Pressure Air Temp Water Temp Dewpoint Dewpoint Depression Visibility Wind Speed Wind Dir Waves Ship Positions

Seabourn Legend

Operator: Cunard Seabourn

Last reported at 2017-Apr-24 18:42 UTC. Time now 2017-Apr-25 02:52 UTC.
Position N 36°52' W 007°55'.

Length 135 m; draft 5.5 m.

Type: Passenger vessel. MMSI: 311085000.

Date/timePositionNaut miles runAvg speedWind from/ knotsBaromVisibWave heightAir tempDewpointWater temp
2017-Apr-24 18:42N 36°52' W 007°55'211.6
2017-Apr-24 18:30N 36°53' W 007°58'611.5
2017-Apr-24 18:00N 36°55' W 008°04'611.6
2017-Apr-24 17:30N 36°57' W 008°11'611.9
2017-Apr-24 17:00N 36°60' W 008°18'611.7
2017-Apr-24 16:30N 37°02' W 008°25'611.5
2017-Apr-24 16:00N 37°04' W 008°32'3 6.2
2017-Apr-24 15:30N 37°07' W 008°32'0 0.0
2017-Apr-24 15:00N 37°07' W 008°32'0 0.0
2017-Apr-24 14:30N 37°07' W 008°32'0 0.0
2017-Apr-24 13:30N 37°07' W 008°32'0 0.0
2017-Apr-24 13:00N 37°07' W 008°32'0 0.0
2017-Apr-24 12:30N 37°07' W 008°32'0 0.0
2017-Apr-24 11:56N 37°07' W 008°32'0 0.0
2017-Apr-24 11:26N 37°07' W 008°32'0 0.0
2017-Apr-24 10:56N 37°07' W 008°32'0 0.0
2017-Apr-24 10:29N 37°07' W 008°32'0 0.0
2017-Apr-24 09:59N 37°07' W 008°32'0 0.0
2017-Apr-24 09:28N 37°07' W 008°32'0 0.0
2017-Apr-24 08:58N 37°07' W 008°32'0 0.0
2017-Apr-24 08:28N 37°07' W 008°32'0 0.0
2017-Apr-24 07:55N 37°07' W 008°32'0 0.1
2017-Apr-24 07:30N 37°07' W 008°32'0 0.9
2017-Apr-24 07:00N 37°07' W 008°31'4 7.9
2017-Apr-24 06:30N 37°03' W 008°34'3 6.2
2017-Apr-24 06:00N 37°02' W 008°37'4 7.3
2017-Apr-24 05:30N 36°59' W 008°40'4 7.3
2017-Apr-24 05:00N 36°57' W 008°44'4 7.0
2017-Apr-24 04:30N 36°55' W 008°47'4 7.0
2017-Apr-24 04:00N 36°53' W 008°51'4 7.9
2017-Apr-24 03:30N 36°51' W 008°55'510.2
2017-Apr-24 03:00N 36°50' W 009°01'510.8
2017-Apr-24 02:30N 36°53' W 009°07'510.9
2017-Apr-24 02:00N 36°56' W 009°12'611.1
2017-Apr-24 01:29N 37°02' W 009°13'511.2
2017-Apr-24 01:00N 37°07' W 009°14'611.1
2017-Apr-24 00:30N 37°13' W 009°15'611.5
2017-Apr-24 00:00N 37°18' W 009°16'611.4
2017-Apr-23 23:30N 37°24' W 009°16'611.7
2017-Apr-23 23:00N 37°30' W 009°16'611.7
2017-Apr-23 22:30N 37°36' W 009°17'611.8
2017-Apr-23 22:00N 37°42' W 009°17'611.6
2017-Apr-23 21:30N 37°48' W 009°18'611.8
2017-Apr-23 21:00N 37°53' W 009°19'612.2
2017-Apr-23 20:30N 37°59' W 009°19'612.5
2017-Apr-23 20:00N 38°06' W 009°20'612.2
2017-Apr-23 19:30N 38°12' W 009°20'612.0
2017-Apr-23 19:00N 38°18' W 009°21'612.0
2017-Apr-23 18:30N 38°24' W 009°22'611.3
2017-Apr-23 18:00N 38°29' W 009°22'611.8
2017-Apr-23 17:30N 38°35' W 009°23'612.3
2017-Apr-23 17:00N 38°40' W 009°18'5 9.9
2017-Apr-23 16:30N 38°41' W 009°12'4 8.0
2017-Apr-23 16:00N 38°43' W 009°07'0 0.0
2017-Apr-23 15:30N 38°43' W 009°07'0 0.0
2017-Apr-23 15:00N 38°43' W 009°07'0 0.0
2017-Apr-23 13:56N 38°43' W 009°07'0 0.0
2017-Apr-23 13:29N 38°43' W 009°07'0 0.0
2017-Apr-23 12:59N 38°43' W 009°07'0 0.0
2017-Apr-23 12:29N 38°43' W 009°07'0 0.0
2017-Apr-23 11:58N 38°43' W 009°07'0 0.0
2017-Apr-23 11:28N 38°43' W 009°07'0 0.0
2017-Apr-23 10:58N 38°43' W 009°07'0 0.0
2017-Apr-23 10:28N 38°43' W 009°07'0 0.0
2017-Apr-23 10:01N 38°43' W 009°07'0 0.0
2017-Apr-23 09:27N 38°43' W 009°07'0 0.0
2017-Apr-23 09:00N 38°43' W 009°07'0 0.0
2017-Apr-23 08:30N 38°43' W 009°07'0 0.0
2017-Apr-23 08:00N 38°43' W 009°07'0 0.0
2017-Apr-23 07:29N 38°43' W 009°07'0 0.0
2017-Apr-23 06:59N 38°43' W 009°07'0 0.0
2017-Apr-23 06:29N 38°43' W 009°07'0 0.0
2017-Apr-23 05:59N 38°43' W 009°07'0 0.0
2017-Apr-23 05:29N 38°43' W 009°07'0 0.4
2017-Apr-23 05:00N 38°43' W 009°07'3 6.3
2017-Apr-23 04:30N 38°41' W 009°11'2 4.0
2017-Apr-23 03:59N 38°41' W 009°14'3 5.6
2017-Apr-23 03:30N 38°41' W 009°17'3 5.4
2017-Apr-23 03:00N 38°39' W 009°20'3 5.7
2017-Apr-23 02:30N 38°37' W 009°22'3 6.7
2017-Apr-23 02:00N 38°36' W 009°26'4 7.1
2017-Apr-23 01:30N 38°36' W 009°31'3 6.1
2017-Apr-23 01:00N 38°36' W 009°35'3 6.2
2017-Apr-23 00:30N 38°36' W 009°39'3 6.5
2017-Apr-23 00:00N 38°35' W 009°43'3 6.4
2017-Apr-22 23:30N 38°35' W 009°47'3 6.4
2017-Apr-22 23:00N 38°35' W 009°51'3 6.3
2017-Apr-22 22:30N 38°35' W 009°55'3 6.2
2017-Apr-22 22:00N 38°34' W 009°59'3 6.2
2017-Apr-22 21:30N 38°34' W 010°03'3 6.4
2017-Apr-22 21:00N 38°33' W 010°07'3 6.5
2017-Apr-22 20:29N 38°33' W 010°11'3 6.4
2017-Apr-22 20:00N 38°32' W 010°15'3 6.6
2017-Apr-22 19:30N 38°32' W 010°19'3 6.5
2017-Apr-22 19:00N 38°31' W 010°23'7 6.3
2017-Apr-22 17:55N 38°30' W 010°32'  
2017-Apr-20 03:07N 36°46' W 022°51'3610.1
2017-Apr-19 23:35N 36°38' W 023°35'3 9.9
2017-Apr-19 23:15N 36°37' W 023°39'2 9.8
2017-Apr-19 23:00N 36°36' W 023°42'5 9.9
2017-Apr-19 22:30N 36°35' W 023°48'510.1
2017-Apr-19 22:01N 36°34' W 023°54'510.2
2017-Apr-19 21:30N 36°33' W 023°60'510.3
2017-Apr-19 21:00N 36°32' W 024°06'510.3
2017-Apr-19 20:30N 36°30' W 024°12'510.5
2017-Apr-19 20:00N 36°29' W 024°19'510.1
2017-Apr-19 19:31N 36°28' W 024°25'510.0
2017-Apr-19 19:00N 36°27' W 024°31'510.1
2017-Apr-19 18:30N 36°26' W 024°37'510.2
2017-Apr-19 18:00N 36°24' W 024°43'510.0
2017-Apr-19 17:30N 36°23' W 024°49'5 9.9
2017-Apr-19 17:00N 36°22' W 024°55'5 9.7
2017-Apr-19 16:30N 36°21' W 025°01'5 9.8
2017-Apr-19 16:00N 36°20' W 025°07'5 9.6
2017-Apr-19 15:30N 36°18' W 025°13'5 9.5
2017-Apr-19 15:00N 36°17' W 025°18'5 9.9
2017-Apr-19 14:30N 36°16' W 025°24'1010.1
2017-Apr-19 13:30N 36°13' W 025°36'510.2
2017-Apr-19 13:00N 36°12' W 025°42'510.3
2017-Apr-19 12:30N 36°10' W 025°49'510.6
2017-Apr-19 12:00N 36°09' W 025°55'610.9
2017-Apr-19 11:26N 36°07' W 026°02'  

Dump ship's entire track history